This demonstration page uses our WeatherBlox Daily Observations layout. Learn more.

Hourly Observations for February 20, 2017

Temp ( °F °C ) Dew Point ( °F °C ) Humidity (%) Winds ( mph kmh ) Pressure ( in mb ) Visibility ( mi km ) Precip ( " mm )
12:54 am 00:54 Clear 59 15 54 12.2 83 83 S 16 26 29.74 1007 9 14.48406 0 0
1:54 am 01:54 Mostly Cloudy 60 15.6 55 12.8 84 84 S 15 24 29.74 1007 8 12.87472 0 0
2:54 am 02:54 Mostly Clear 59 15 56 13.3 90 90 S 6 9 29.72 1007 7 11.26538 0 0
3:33 am 03:33 Mostly Cloudy 59 15 56 13.3 90 90 S 6 9 29.71 1006 7 11.26538 0 0
3:42 am 03:42 Mostly Cloudy with Mist and Fog 59 15 55 13 88 88 S 7 11 29.71 1006 6 9.65604 0 0
3:54 am 03:54 Mostly Cloudy 59 15 56 13.3 90 90 S 8 13 29.72 1006 7 11.26538 0 0
4:04 am 04:04 Partly Cloudy 59 15 55 13 88 88 S 7 11 29.71 1006 7 11.26538 0 0
4:31 am 04:31 Cloudy 60 15.6 56 13.3 86 86 S 6 9 29.71 1006 7 11.26538 0 0
4:54 am 04:54 Cloudy with Light Rain 59 15 57 13.9 93 93 S 3 6 29.73 1007 7 11.26538 0 0.0254
5:44 am 05:44 Cloudy 57 14 55 13 94 94 SSE 9 15 29.77 1008 7 11.26538 0 0
5:54 am 05:54 Cloudy 59 15 57 13.9 93 93 SSE 8 13 29.74 1007 8 12.87472 0 0.0254
6:31 am 06:31 Cloudy with Light Rain 58 14.4 56 13.3 93 93 S 7 11 29.71 1006 7 11.26538 0.01 0.254
6:44 am 06:44 Cloudy 57 14 57 14 100 100 SSE 8 13 29.71 1006 7 11.26538 0 0
6:54 am 06:54 Cloudy 58 14.4 57 13.9 97 97 SSE 7 11 29.72 1007 8 12.87472 0.01 0.254
7:26 am 07:26 Cloudy 57 14 57 14 100 100 S 10 17 29.77 1008 7 11.26538 0 0
7:50 am 07:50 Cloudy with Light Rain 59 15 57 14 94 94 S 12 19 29.71 1006 7 11.26538 0 0
7:54 am 07:54 Cloudy 59 15 57 13.9 93 93 SSE 12 19 29.74 1007 7 11.26538 0 0.0254
8:16 am 08:16 Mostly Cloudy with Mist and Fog 57 14 57 14 100 100 SSE 12 19 29.71 1006 6 9.65604 0 0
8:28 am 08:28 Mostly Cloudy 57 14 57 14 100 100 S 9 15 29.71 1006 7 11.26538 0 0
8:54 am 08:54 Cloudy 59 15 57 13.9 93 93 S 14 22 29.72 1007 10 16.0934 0 0
9:54 am 09:54 Cloudy 59 15 57 13.9 93 93 SSW 17 28 29.74 1007 9 14.48406 0 0
10:12 am 10:12 Cloudy 59 15 57 14 94 94 S 14 22 29.71 1006 10 16.0934 0 0
10:32 am 10:32 Partly Cloudy 61 16 57 14 88 88 S 13 20 29.71 1006 10 16.0934 0 0
10:42 am 10:42 Mostly Cloudy 60 15.6 57 13.9 90 90 S 12 19 29.71 1006 10 16.0934 0 0
10:50 am 10:50 Mostly Cloudy 61 16 57 14 88 88 S 10 17 29.71 1006 10 16.0934 0 0
10:54 am 10:54 Mostly Cloudy 61 16.1 57 13.9 87 87 S 13 20 29.73 1007 10 16.0934 0 0
11:26 am 11:26 Cloudy 61 16 57 14 88 88 SSW 10 17 29.71 1006 10 16.0934 0 0
11:54 am 11:54 Cloudy 61 16.1 56 13.3 84 84 SSW 14 22 29.75 1008 10 16.0934 0 0
12:07 pm 12:07 Cloudy 61 16.1 56 13.3 84 84 SW 13 20 29.74 1007 10 16.0934 0 0
12:31 pm 12:31 Cloudy 62 16.7 55 12.8 78 78 SW 13 20 29.74 1007 10 16.0934 0 0
12:45 pm 12:45 Cloudy 62 16.7 55 12.8 78 78 SW 13 20 29.71 1006 10 16.0934 0 0
12:54 pm 12:54 Cloudy 62 16.7 55 12.8 78 78 SSW 15 24 29.73 1007 10 16.0934 0 0
1:12 pm 13:12 Cloudy 63 17 55 13 77 77 SW 14 22 29.71 1006 10 16.0934 0 0
1:54 pm 13:54 Mostly Cloudy 62 16.7 54 12.2 75 75 SW 12 19 29.74 1007 10 16.0934 0 0
2:21 pm 14:21 Mostly Cloudy 63 17.2 54 12.2 73 73 WSW 12 19 29.74 1007 10 16.0934 0 0
2:45 pm 14:45 Partly Cloudy 63 17.2 52 11.1 68 68 WNW 9 15 29.71 1006 10 16.0934 0 0
2:54 pm 14:54 Mostly Sunny 64 17.8 51 10.6 63 63 W 14 22 29.74 1007 10 16.0934 0 0
3:54 pm 15:54 Mostly Sunny 64 17.8 47 8.3 54 54 NNW 20 31 29.78 1009 10 16.0934 0 0
4:54 pm 16:54 Sunny 62 16.7 44 6.7 52 52 NNW 10 17 29.81 1010 10 16.0934 0 0
5:54 pm 17:54 Sunny 58 14.4 43 6.1 58 58 NNW 9 15 29.85 1011 10 16.0934 0 0
6:54 pm 18:54 Clear 51 10.6 41 5 69 69 N 5 7 29.91 1013 10 16.0934 0 0
7:54 pm 19:54 Clear 47 8.3 40 4.4 77 77 N 5 7 29.96 1015 10 16.0934 0 0
8:54 pm 20:54 Clear 39 3.9 36 2.2 89 89 Calm 29.97 1015 10 16.0934 0 0
9:54 pm 21:54 Clear 45 7.2 39 3.9 80 80 WNW 5 7 29.97 1015 10 16.0934 0 0
10:54 pm 22:54 Clear 37 2.8 35 1.7 93 93 N 6 9 29.96 1015 10 16.0934 0 0
11:54 pm 23:54 Clear 40 4.4 36 2.2 86 86 Calm 29.97 1015 10 16.0934 0 0

Powered by AerisWeather